Simultaneous Nadir Overpasses (SNOs) Predictions

Prediction of SNOs between METOP-C and LANDSAT-8 Satellite Orbit:

Table of predicted SNOs for the next 14.0 days since TLE Epoch: 7/1/2023
Index Date (METOP-C) Time (METOP-C) Lat,Lon (METOP-C) SZA (METOP-C ) Date (LANDSAT-8) Time (LANDSAT-8) Lat,Lon (LANDSAT-8) SZA (LANDSAT-8 ) Distance(km) Time Diff (sec)
1 07/01/2023 10:17:10 81.18, 66.52 60.22 07/01/2023 10:17:50 81.19, 66.59 60.25 1.39 40
2 07/01/2023 11:07:50 -81.20,-125.44 119.69 07/01/2023 11:07:16 -81.21,-125.49 119.71 0.78 34
3 07/04/2023 05:51:31 81.19, 133.17 60.46 07/04/2023 05:52:07 81.19, 133.11 60.47 1.11 36
4 07/04/2023 06:42:11 -81.21, -58.75 119.45 07/04/2023 06:41:33 -81.21, -58.94 119.49 3.23 38
5 07/07/2023 01:25:52 81.19,-160.60 60.69 07/07/2023 01:26:23 81.19,-160.50 60.71 1.95 31
6 07/07/2023 02:16:32 -81.21, 7.51 119.22 07/07/2023 02:15:49 -81.21, 7.48 119.24 0.65 43
7 07/09/2023 21:00:14 81.18, -94.43 60.96 07/09/2023 21:00:40 81.18, -94.25 60.99 3.19 26
8 07/09/2023 21:50:54 -81.20, 73.70 118.94 07/09/2023 21:50:06 -81.20, 73.75 118.95 0.85 48
9 07/12/2023 16:34:35 81.18, -27.93 61.33 07/12/2023 16:34:56 81.18, -27.76 61.36 2.94 21



Historial Predications of SNOs between METOP-C and LANDSAT-8
